GW0552 Weather Reports


time (UTC)temp
F
wind
direction
speed
knots
gust
knots
rain 1hr
in
rain 24hr
in
rain mn
in
humidity
%
barometer
mb
20260507112221 49 132 0.0 0.0 0.00 0.00 0.00 99 1010.8
20260507111718 49 131 0.0 0.0 0.00 0.00 0.00 99 1010.7
20260507111215 49 131 0.0 0.0 0.00 0.00 0.00 99 1010.6
20260507110711 49 131 0.0 0.0 0.00 0.00 0.00 99 1010.4
20260507110208 49 131 0.0 0.0 0.00 0.00 0.00 99 1010.2
20260507105705 49 131 0.0 0.0 0.00 0.00 0.00 99 1010.0
20260507105200 49 131 0.0 0.0 0.00 0.00 0.00 99 1010.2
20260507104658 49 132 0.0 0.0 0.00 0.00 0.00 99 1010.1
20260507104154 49 132 0.0 0.0 0.00 0.00 0.00 99 1010.1
20260507103650 49 132 0.0 0.0 0.00 0.00 0.00 99 1010.3
20260507103147 49 132 0.0 0.0 0.00 0.00 0.00 99 1010.3
20260507102644 49 132 0.0 0.0 0.00 0.00 0.00 99 1010.0
20260507102140 49 131 0.0 0.0 0.00 0.00 0.00 99 1010.2
20260507101636 49 131 0.0 0.0 0.00 0.00 0.00 99 1010.3
20260507101132 49 131 0.0 0.0 0.00 0.00 0.00 98 1010.1
20260507100630 49 131 0.0 0.0 0.00 0.00 0.00 98 1010.0
20260507100128 49 131 0.0 0.0 0.00 0.00 0.00 98 1009.7
20260507095626 49 131 0.0 0.0 0.00 0.00 0.00 98 1009.9
20260507095122 49 131 0.0 0.0 0.00 0.00 0.00 98 1009.9
20260507094618 49 131 0.0 0.0 0.00 0.00 0.00 98 1009.9
20260507094115 49 131 0.0 0.0 0.00 0.00 0.00 98 1009.9
20260507093612 49 131 0.0 0.0 0.00 0.00 0.00 98 1009.9
20260507093111 49 131 0.0 0.0 0.00 0.00 0.00 98 1010.1
20260507092607 49 132 0.0 0.0 0.00 0.00 0.00 98 1010.1
20260507092103 49 131 0.0 0.0 0.00 0.00 0.00 98 1010.3
20260507091601 49 131 0.0 0.0 0.00 0.00 0.00 98 1010.2
20260507091056 49 131 0.0 0.0 0.00 0.00 0.00 98 1010.2
20260507090552 49 130 0.0 0.0 0.00 0.00 0.00 98 1010.1
20260507090049 49 131 0.0 0.0 0.00 0.00 0.00 98 1010.3
20260507085546 49 130 0.0 0.0 0.00 0.00 0.00 98 1010.0
20260507085043 49 130 0.0 0.0 0.00 0.00 0.00 98 1009.9
20260507084540 49 130 0.0 0.0 0.00 0.00 0.00 98 1009.9
20260507084037 49 132 0.0 0.0 0.00 0.00 0.00 98 1009.8
20260507083533 49 131 0.0 0.0 0.00 0.00 0.00 98 1009.7
20260507083030 50 131 0.0 0.0 0.00 0.00 0.00 98 1009.7
20260507082526 50 132 0.0 0.0 0.00 0.00 0.00 98 1009.8
20260507082023 50 131 0.0 0.0 0.00 0.00 0.00 98 1009.9
20260507081519 50 131 0.0 0.0 0.00 0.00 0.00 98 1010.0
20260507081016 50 130 0.9 0.9 0.00 0.00 0.00 98 1009.9
20260507080512 50 132 0.9 0.9 0.00 0.00 0.00 98 1009.8
20260507080008 50 131 0.9 0.9 0.00 0.00 0.00 97 1009.8
20260507075504 50 131 0.0 0.0 0.00 0.00 0.00 97 1009.9
20260507075001 50 131 0.0 0.0 0.00 0.00 0.00 97 1010.0
20260507074457 50 130 0.0 0.0 0.00 0.00 0.00 97 1010.2
20260507073955 50 130 0.0 0.0 0.00 0.00 0.00 97 1010.3
20260507073451 50 129 0.0 0.0 0.00 0.00 0.00 97 1010.1
20260507072948 50 129 0.0 0.0 0.00 0.00 0.00 97 1010.3
20260507072446 50 129 0.0 0.0 0.00 0.00 0.00 97 1009.9
20260507071943 50 130 0.0 0.0 0.00 0.00 0.00 97 1009.9
20260507071440 50 129 0.0 0.0 0.00 0.00 0.00 96 1010.0
20260507070936 50 129 0.0 0.0 0.00 0.00 0.00 96 1010.0
20260507070434 50 130 0.0 0.0 0.00 0.00 0.00 96 1010.0
20260507065930 50 129 0.0 0.0 0.00 0.00 0.00 96 1009.9
20260507065427 50 130 0.0 0.0 0.00 0.00 0.00 96 1010.1
20260507064919 50 129 0.0 0.0 0.00 0.00 0.00 96 1010.2
20260507064417 50 129 0.0 0.0 0.00 0.00 0.00 96 1010.3
20260507063915 50 129 0.0 0.0 0.00 0.00 0.00 96 1010.2
20260507063411 50 127 0.0 0.0 0.00 0.00 0.00 96 1010.0
20260507062908 50 131 0.0 0.0 0.00 0.00 0.00 96 1010.0
20260507062405 51 132 0.0 0.0 0.00 0.00 0.00 96 1009.9
20260507061903 51 131 0.0 0.0 0.00 0.00 0.00 96 1010.0
20260507061401 51 132 0.0 0.0 0.00 0.00 0.00 96 1010.0
20260507060859 51 132 0.0 0.0 0.00 0.00 0.00 96 1009.9
20260507060355 51 132 0.0 0.0 0.00 0.00 0.00 95 1010.3
20260507055852 51 136 0.0 0.0 0.00 0.00 0.00 95 1010.3
20260507055347 51 131 0.0 0.0 0.00 0.00 0.00 95 1010.2
20260507054844 51 131 0.0 0.0 0.00 0.00 0.00 95 1010.5
20260507054340 51 131 0.0 0.0 0.00 0.00 0.00 95 1010.5
20260507053837 51 131 0.0 0.0 0.00 0.00 0.00 95 1010.2
20260507053335 51 131 0.0 0.0 0.00 0.00 0.00 95 1010.2
20260507052834 51 132 0.0 0.0 0.00 0.00 0.00 95 1010.6
20260507052330 51 129 0.0 0.0 0.00 0.00 0.00 96 1010.7
20260507051828 51 133 0.0 0.0 0.00 0.00 0.00 95 1010.6
20260507051325 51 131 0.0 0.0 0.00 0.00 0.00 95 1010.4
20260507050822 51 132 0.0 0.0 0.00 0.00 0.00 95 1010.5
20260507050318 52 131 0.0 0.0 0.00 0.00 0.00 95 1010.3
20260507045816 52 132 0.0 0.0 0.00 0.00 0.00 95 1010.2
20260507045312 52 132 0.0 0.0 0.00 0.00 0.00 95 1010.4
20260507044809 52 130 0.0 0.0 0.00 0.00 0.00 94 1010.4
20260507044306 52 131 0.0 0.0 0.00 0.00 0.00 94 1010.7
20260507043802 52 131 0.0 0.0 0.00 0.00 0.00 93 1010.6
20260507043258 52 126 0.9 0.9 0.00 0.00 0.00 92 1010.9
20260507042754 52 129 0.9 0.9 0.00 0.00 0.00 94 1010.7
20260507042250 52 131 0.9 0.9 0.00 0.00 0.00 93 1010.6
20260507041747 53 128 0.0 0.0 0.00 0.00 0.00 93 1010.5
20260507041244 53 128 0.0 0.9 0.00 0.00 0.00 92 1010.4
20260507040741 53 128 0.0 0.9 0.00 0.00 0.00 91 1010.4
20260507040237 53 129 0.0 0.0 0.00 0.00 0.00 91 1010.3
20260507035733 53 128 0.0 0.0 0.00 0.50 0.50 90 1010.4
20260507035229 53 146 0.9 0.9 0.00 0.50 0.50 92 1010.1
20260507034726 53 128 0.0 0.0 0.00 0.50 0.50 93 1010.3
20260507034223 53 149 1.7 1.7 0.00 0.50 0.50 92 1009.9
20260507033722 53 129 0.0 0.0 0.00 0.50 0.50 94 1010.0
20260507033219 53 121 0.9 0.9 0.00 0.50 0.50 95 1009.9
20260507032716 53 128 0.0 0.0 0.00 0.50 0.50 96 1010.0
20260507032212 53 129 0.0 0.0 0.00 0.50 0.50 98 1009.8
20260507031709 55 128 0.0 0.0 0.00 0.50 0.50 99 1010.2
20260507031205 55 133 0.0 0.0 0.00 0.50 0.50 99 1010.0
20260507030702 55 131 0.0 0.0 0.00 0.50 0.50 99 1009.8
20260507030200 55 131 0.0 0.0 0.00 0.50 0.50 99 1009.9
20260507025657 55 131 0.0 0.0 0.00 0.50 0.50 98 1010.0
20260507025154 55 128 0.0 0.0 0.00 0.50 0.50 98 1010.1
20260507024652 55 135 0.0 0.0 0.00 0.50 0.50 98 1010.2
20260507024149 55 129 0.0 0.0 0.00 0.50 0.50 98 1010.1
20260507023644 55 130 0.0 0.0 0.00 0.50 0.50 98 1010.2
20260507023142 55 129 0.0 0.0 0.00 0.50 0.50 98 1010.2
20260507022639 55 121 0.0 0.0 0.00 0.50 0.50 98 1009.8
20260507022134 56 125 0.0 0.0 0.00 0.50 0.50 98 1010.1
20260507021631 56 111 0.0 0.0 0.00 0.50 0.50 98 1010.2
20260507021126 56 128 0.0 0.0 0.00 0.50 0.50 98 1010.2
20260507020625 56 128 0.9 0.9 0.00 0.50 0.50 98 1010.4
20260507020121 56 128 0.9 0.9 0.00 0.50 0.50 98 1010.3
20260507015619 56 124 1.7 1.7 0.00 0.50 0.50 98 1010.0
20260507015116 56 116 0.9 1.7 0.00 0.50 0.50 98 1010.3
20260507014613 56 141 0.9 0.9 0.00 0.50 0.50 98 1009.8
20260507014109 56 118 1.7 1.7 0.00 0.50 0.50 98 1009.1
20260507013606 56 124 0.0 0.0 0.00 0.50 0.50 98 1009.7
20260507013103 56 101 1.7 1.7 0.00 0.50 0.50 98 1009.3
20260507012600 56 128 0.0 0.0 0.00 0.50 0.50 98 1009.5
20260507012055 56 132 0.0 0.0 0.00 0.50 0.50 98 1009.2
20260507011554 56 125 0.9 0.9 0.00 0.50 0.50 98 1009.1
20260507011050 56 115 0.0 0.9 0.00 0.50 0.50 98 1008.6
20260507010544 56 103 1.7 1.7 0.00 0.50 0.50 98 1009.5
20260507010041 56 119 0.0 0.0 0.00 0.50 0.50 98 1009.2
20260507005538 56 129 0.0 0.0 0.00 0.50 0.50 98 1009.0
20260507005034 56 132 0.0 0.0 0.00 0.50 0.50 98 1008.9
20260507004531 56 131 0.0 0.0 0.00 0.50 0.50 98 1008.5
20260507004029 56 120 2.6 2.6 0.00 0.50 0.50 98 1008.1
20260507003524 56 128 0.0 0.0 0.00 0.50 0.50 98 1008.6
20260507003020 56 121 1.7 1.7 0.00 0.50 0.50 98 1008.6
20260507002517 56 121 0.9 1.7 0.00 0.50 0.50 97 1008.6
20260507002013 56 128 0.0 0.0 0.00 0.50 0.50 97 1008.8
20260507001509 56 130 0.9 0.9 0.00 0.50 0.50 97 1008.8
20260507001007 56 145 0.9 0.9 0.00 0.50 0.50 97 1008.5
20260507000503 57 108 1.7 1.7 0.00 0.50 0.50 98 1007.6
20260506235958 57 130 2.6 2.6 0.00 0.50 0.50 97 1008.0
20260506235456 57 136 0.9 1.7 0.00 0.50 0.50 97 1008.2
20260506234952 57 121 1.7 1.7 0.00 0.50 0.50 97 1008.2
20260506234449 57 102 2.6 2.6 0.00 0.50 0.50 97 1008.6
20260506233947 57 128 0.0 0.0 0.00 0.50 0.50 96 1008.8
20260506233443 57 131 0.9 0.9 0.00 0.50 0.50 96 1008.4
20260506232939 57 132 0.9 0.9 0.00 0.50 0.50 96 1008.4
20260506232436 57 120 0.9 0.9 0.00 0.50 0.50 96 1008.1
20260506231931 57 129 2.6 2.6 0.00 0.50 0.50 96 1008.0
20260506231429 58 126 0.9 1.7 0.00 0.50 0.50 95 1007.9
20260506230926 57 128 0.0 0.0 0.00 0.50 0.50 95 1008.0
20260506230422 57 128 0.0 0.9 0.00 0.50 0.50 95 1008.2
20260506225919 57 119 0.9 0.9 0.00 0.50 0.50 94 1008.0
20260506225416 57 121 0.0 0.0 0.00 0.50 0.50 94 1008.5
20260506224908 58 129 0.9 0.9 0.00 0.50 0.50 94 1008.8
20260506224405 58 125 0.9 1.7 0.00 0.50 0.50 94 1008.5
20260506223901 58 135 1.7 1.7 0.00 0.50 0.50 94 1008.6
20260506223356 58 125 0.0 0.0 0.00 0.50 0.50 94 1009.1
20260506222854 58 127 0.0 0.0 0.00 0.50 0.50 93 1008.8
20260506222350 59 131 0.0 0.0 0.00 0.50 0.50 93 1008.7
20260506221848 59 123 0.0 0.0 0.00 0.50 0.50 93 1008.6
20260506221345 59 123 0.0 0.0 0.00 0.50 0.50 93 1008.3
20260506220842 59 117 0.9 0.9 0.00 0.50 0.50 93 1008.2
20260506220338 59 119 0.0 0.9 0.00 0.50 0.50 93 1008.3
20260506215835 59 122 0.0 0.9 0.00 0.50 0.50 93 1008.3
20260506215330 59 133 0.0 0.0 0.00 0.50 0.50 93 1008.2
20260506214827 58 134 0.0 0.0 0.00 0.50 0.50 92 1007.9
20260506214323 58 131 0.0 0.0 0.00 0.50 0.50 91 1008.1
20260506213822 58 134 0.0 0.0 0.00 0.50 0.50 92 1008.0
20260506213319 58 122 0.9 0.9 0.00 0.50 0.50 91 1007.9
20260506212816 58 126 0.9 0.9 0.00 0.50 0.50 91 1008.1
20260506212312 59 124 0.0 0.9 0.00 0.50 0.50 91 1007.9
20260506211807 59 136 0.0 0.9 0.00 0.50 0.50 91 1007.9
20260506211303 59 136 1.7 1.7 0.00 0.50 0.50 91 1008.0
20260506210801 59 116 3.5 4.3 0.00 0.50 0.50 91 1008.0
20260506210257 59 122 0.9 0.9 0.00 0.50 0.50 90 1007.9
20260506205754 59 132 0.0 0.0 0.00 0.50 0.50 91 1007.9
20260506205250 59 129 0.0 0.0 0.00 0.50 0.50 91 1007.9
20260506204747 59 128 0.9 0.9 0.00 0.50 0.50 91 1008.0
20260506204245 59 135 0.0 0.0 0.00 0.50 0.50 91 1008.2
20260506203742 59 136 1.7 1.7 0.00 0.50 0.50 89 1007.8
20260506203239 59 121 2.6 2.6 0.00 0.50 0.50 90 1007.9
20260506202736 59 120 1.7 1.7 0.00 0.50 0.50 91 1007.9
20260506202233 58 126 1.7 1.7 0.00 0.50 0.50 90 1007.9
20260506201730 58 134 0.0 0.0 0.00 0.50 0.50 93 1008.0
20260506201226 58 144 1.7 2.6 0.00 0.50 0.50 93 1007.9
20260506200723 58 131 0.0 0.0 0.00 0.50 0.50 94 1007.9
20260506200220 57 120 0.0 0.0 0.00 0.50 0.50 94 1008.1
20260506195716 58 131 0.9 1.7 0.00 0.50 0.50 93 1008.1
20260506195213 58 134 0.9 0.9 0.00 0.50 0.50 93 1008.0
20260506194710 58 126 0.0 0.9 0.00 0.50 0.50 93 1008.0
20260506194207 57 119 0.9 1.7 0.00 0.50 0.50 92 1007.8
20260506193705 58 125 0.0 0.0 0.00 0.50 0.50 94 1007.9
20260506193201 57 136 0.0 0.0 0.00 0.50 0.50 92 1007.9
20260506192658 57 134 0.0 0.9 0.00 0.50 0.50 93 1007.9
20260506192154 57 119 0.9 0.9 0.00 0.50 0.50 94 1007.7
20260506191651 57 129 0.0 0.0 0.00 0.50 0.50 94 1007.8
20260506191147 57 134 0.9 0.9 0.00 0.50 0.50 94 1007.8
20260506190645 57 99 2.6 2.6 0.00 0.50 0.50 94 1007.9
20260506190141 57 115 0.9 0.9 0.00 0.50 0.50 95 1007.8
20260506185638 56 151 1.7 2.6 0.00 0.50 0.50 94 1007.8
20260506185134 57 336 2.6 2.6 0.00 0.50 0.50 95 1007.8
20260506184632 57 28 1.7 1.7 0.00 0.50 0.50 96 1008.1
20260506184129 56 123 0.0 0.0 0.00 0.50 0.50 96 1007.9
20260506183626 56 134 0.0 0.9 0.00 0.50 0.50 97 1008.0
20260506183122 55 120 0.9 1.7 0.00 0.50 0.50 98 1007.9
20260506182620 55 137 0.9 0.9 0.00 0.50 0.50 98 1007.8
20260506182116 55 146 1.7 1.7 0.00 0.50 0.50 98 1007.8
20260506181614 55 108 1.7 1.7 0.00 0.50 0.50 98 1007.8
20260506181111 55 112 1.7 1.7 0.00 0.50 0.50 98 1008.0
20260506180608 55 119 0.9 1.7 0.00 0.50 0.50 99 1007.8
20260506180104 55 135 0.0 0.9 0.00 0.50 0.50 99 1007.6
20260506175601 55 54 1.7 1.7 0.00 0.50 0.50 99 1007.6
20260506175057 54 113 1.7 1.7 0.00 0.50 0.50 99 1007.3
20260506174556 54 126 0.0 0.0 0.00 0.50 0.50 99 1007.6
20260506174051 54 142 1.7 1.7 0.00 0.50 0.50 99 1007.8
20260506173549 54 151 1.7 1.7 0.00 0.50 0.50 99 1007.7
20260506173046 54 129 1.7 1.7 0.00 0.50 0.50 99 1007.8
20260506172544 54 130 0.0 0.9 0.00 0.50 0.50 99 1007.9
20260506172040 54 148 0.9 1.7 0.00 0.50 0.50 99 1008.0
20260506171537 54 51 2.6 2.6 0.00 0.50 0.50 99 1008.1
20260506171035 54 128 0.0 0.0 0.00 0.50 0.50 99 1007.9
20260506170532 54 137 1.7 1.7 0.00 0.50 0.50 99 1008.1
20260506170024 53 101 1.7 1.7 0.00 0.50 0.50 99 1007.9
20260506165522 53 39 2.6 2.6 0.00 0.50 0.50 99 1007.8
20260506165018 54 280 3.5 4.3 0.00 0.50 0.50 99 1007.9
20260506164515 53 34 1.7 2.6 0.00 0.50 0.50 99 1007.8
20260506164012 53 189 0.9 1.7 0.00 0.50 0.50 99 1007.8
20260506163508 54 136 0.9 0.9 0.00 0.50 0.50 99 1007.5
20260506163004 53 198 2.6 2.6 0.00 0.50 0.50 99 1007.9
20260506162500 53 332 3.5 4.3 0.00 0.50 0.50 99 1007.7
20260506161957 53 142 0.0 0.9 0.00 0.50 0.50 99 1007.8
20260506161455 53 150 0.9 1.7 0.00 0.50 0.50 99 1007.8
20260506160952 53 124 0.9 0.9 0.00 0.50 0.50 99 1007.7
20260506160449 53 77 3.5 4.3 0.00 0.50 0.50 99 1007.6
20260506155946 53 124 1.7 1.7 0.00 0.50 0.50 99 1007.7
20260506155444 53 137 0.9 0.9 0.00 0.50 0.50 99 1007.2
20260506153611 54 126 0.9 0.9 0.00 0.50 0.50 99 1007.1
20260506153108 54 148 0.9 1.7 0.00 0.50 0.50 99 1007.2
20260506152605 54 165 1.7 1.7 0.00 0.50 0.50 99 1007.2
20260506152103 54 8 2.6 4.3 0.00 0.50 0.50 99 1006.9
20260506151601 54 113 1.7 1.7 0.00 0.50 0.50 99 1006.9
20260506151058 54 80 3.5 4.3 0.00 0.50 0.50 99 1006.8
20260506150554 54 53 2.6 2.6 0.00 0.50 0.50 99 1006.7
20260506150051 54 51 1.7 2.6 0.00 0.50 0.50 99 1006.9
20260506145548 55 122 0.9 0.9 0.00 0.50 0.50 99 1006.7
20260506145045 55 144 0.9 1.7 0.05 0.50 0.50 99 1006.7
20260506144542 55 339 3.5 4.3 0.05 0.50 0.50 99 1006.3
20260506144039 55 67 2.6 2.6 0.00 0.49 0.49 99 1006.4
20260506143537 56 128 1.7 1.7 0.00 0.49 0.49 99 1006.2
20260506143035 58 133 0.9 1.7 0.07 0.49 0.49 99 1006.0
20260506142532 59 23 2.6 4.3 0.07 0.49 0.49 99 1005.9
20260506142031 60 127 2.6 2.6 0.00 0.48 0.48 99 1005.8
20260506141528 60 126 0.0 0.0 0.05 0.48 0.48 99 1005.6
20260506141026 60 114 0.9 0.9 0.05 0.48 0.48 99 1005.5
20260506140523 60 121 0.9 0.9 0.05 0.48 0.48 99 1005.5
20260506140020 60 129 1.7 1.7 0.00 0.47 0.47 99 1005.4
20260506135517 60 126 0.9 0.9 0.00 0.47 0.47 99 1005.7
20260506135013 60 128 1.7 2.6 0.00 0.47 0.47 99 1005.6
20260506134510 60 120 0.9 1.7 0.07 0.47 0.47 99 1005.5
20260506134006 60 122 1.7 1.7 0.07 0.47 0.47 99 1005.5
20260506133503 60 132 0.0 0.0 0.00 0.46 0.46 99 1005.2
20260506133000 60 136 3.5 6.1 0.00 0.46 0.46 99 1005.1
20260506132457 60 127 1.7 1.7 0.00 0.46 0.46 99 1005.0
20260506131954 60 121 1.7 1.7 0.00 0.46 0.46 99 1004.7
20260506131451 60 128 0.9 0.9 0.00 0.46 0.46 99 1004.7
20260506130948 60 130 0.0 0.9 0.05 0.46 0.46 99 1004.6
20260506130444 60 121 2.6 2.6 0.05 0.46 0.46 99 1004.5
20260506125942 60 124 2.6 4.3 0.00 0.45 0.45 99 1004.4
20260506125440 60 121 0.9 0.9 0.00 0.45 0.45 99 1004.2
20260506124938 59 120 2.6 2.6 0.00 0.45 0.45 99 1004.4
20260506124435 59 129 1.7 1.7 0.00 0.45 0.45 99 1004.6
20260506123933 59 122 2.6 2.6 0.00 0.45 0.45 99 1004.1
20260506123431 59 118 1.7 1.7 0.00 0.45 0.45 99 1004.5
20260506122928 59 110 1.7 1.7 0.00 0.45 0.45 99 1004.1
20260506122425 59 127 3.5 4.3 0.00 0.45 0.45 99 1004.2
20260506121924 59 139 1.7 1.7 0.00 0.45 0.45 99 1004.1
20260506121420 59 116 0.9 0.9 0.00 0.45 0.45 99 1004.0
20260506120917 59 130 0.9 1.7 0.00 0.45 0.45 99 1004.0
20260506120415 59 126 0.9 1.7 0.00 0.45 0.45 99 1003.9
20260506115912 59 133 0.9 0.9 0.00 0.45 0.45 99 1004.0
20260506115410 59 127 1.7 1.7 0.00 0.45 0.45 99 1004.0
20260506114908 59 118 1.7 1.7 0.00 0.45 0.45 99 1003.8
20260506114405 59 128 0.9 1.7 0.00 0.45 0.45 99 1003.8
20260506113904 59 126 1.7 1.7 0.00 0.45 0.45 99 1003.8
20260506113401 59 145 1.7 1.7 0.00 0.45 0.45 99 1003.8
20260506112857 59 132 0.9 0.9 0.07 0.45 0.45 99 1003.2